EKRAN 1 1 09503U 76107A 21060.62021038 -.00000115 00000-0 00000-0 0 9997 2 09503 8.4324 297.2107 0066083 128.5642 32.5973 1.00323517179120 SL-12 R/B(2) 1 11569U 76107F 21060.29162275 -.00000096 00000-0 00000-0 0 9992 2 11569 7.6008 293.6560 0012384 134.1731 64.8074 1.01460222165878